Time,TemperatureF,DewpointF,PressureIn,WindDirection,WindDirectionDegrees,WindSpeedMPH,WindSpeedGustMPH,Humidity,HourlyPrecipIn,Conditions,Clouds,dailyrainin,SoftwareType,DateUTC
2013-02-04 00:03:00,20.0,16.0,-100.00,SW,220,6.0,10.0,86,0.00,,,-99.99,,2013-02-04 05:03:00,
2013-02-04 00:11:00,20.0,16.0,-100.00,SW,225,9.0,12.0,83,0.00,,,-99.99,,2013-02-04 05:11:00,
2013-02-04 00:22:00,20.0,15.0,-100.00,SW,225,7.0,12.0,82,0.00,,,-99.99,,2013-02-04 05:22:00,
2013-02-04 00:33:00,20.0,15.0,-100.00,SW,220,7.0,10.0,82,0.00,,,-99.99,,2013-02-04 05:33:00,
2013-02-04 00:42:00,19.0,15.0,-100.00,SW,225,6.0,11.0,82,0.00,,,-99.99,,2013-02-04 05:42:00,
2013-02-04 00:52:00,19.0,15.0,-100.00,SW,225,7.0,11.0,82,0.00,,,-99.99,,2013-02-04 05:52:00,
2013-02-04 01:02:00,19.0,15.0,-100.00,SW,225,7.0,12.0,82,0.00,,,-99.99,,2013-02-04 06:02:00,
2013-02-04 01:11:00,19.0,15.0,-100.00,SW,225,7.0,10.0,82,0.00,,,-99.99,,2013-02-04 06:11:00,
2013-02-04 01:21:00,19.0,15.0,-100.00,SW,230,9.0,12.0,82,0.00,,,-99.99,,2013-02-04 06:21:00,
2013-02-04 01:32:00,19.0,15.0,-100.00,SW,225,7.0,11.0,82,0.00,,,-99.99,,2013-02-04 06:32:00,
2013-02-04 01:42:00,19.0,15.0,-100.00,SW,225,7.0,12.0,82,0.00,,,-99.99,,2013-02-04 06:42:00,
2013-02-04 01:51:00,19.0,15.0,-100.00,SW,225,7.0,12.0,82,0.00,,,-99.99,,2013-02-04 06:51:00,
2013-02-04 02:02:00,19.0,15.0,-100.00,SW,225,8.0,11.0,82,0.00,,,-99.99,,2013-02-04 07:02:00,
2013-02-04 02:11:00,19.0,14.0,-100.00,SW,230,6.0,11.0,83,0.00,,,-99.99,,2013-02-04 07:11:00,
2013-02-04 02:21:00,19.0,15.0,-100.00,WSW,240,6.0,10.0,83,0.00,,,-99.99,,2013-02-04 07:21:00,
2013-02-04 02:32:00,18.0,14.0,-100.00,SW,235,6.0,9.0,83,0.00,,,-99.99,,2013-02-04 07:32:00,
2013-02-04 02:42:00,18.0,14.0,-100.00,SW,235,6.0,8.0,83,0.00,,,-99.99,,2013-02-04 07:42:00,
2013-02-04 02:52:00,18.0,14.0,-100.00,WSW,240,6.0,9.0,84,0.00,,,-99.99,,2013-02-04 07:52:00,
2013-02-04 03:01:00,18.0,14.0,-100.00,SSW,210,6.0,7.0,84,0.00,,,-99.99,,2013-02-04 08:01:00,
2013-02-04 03:11:00,18.0,14.0,-100.00,SSW,210,6.0,9.0,84,0.00,,,-99.99,,2013-02-04 08:11:00,
2013-02-04 03:21:00,18.0,14.0,-100.00,SW,215,6.0,7.0,84,0.00,,,-99.99,,2013-02-04 08:21:00,
2013-02-04 03:32:00,18.0,14.0,-100.00,SW,215,6.0,7.0,84,0.00,,,-99.99,,2013-02-04 08:32:00,
2013-02-04 03:42:00,18.0,15.0,-100.00,SW,220,4.0,8.0,86,0.00,,,-99.99,,2013-02-04 08:42:00,
2013-02-04 03:52:00,18.0,15.0,-100.00,SW,230,6.0,9.0,87,0.00,,,-99.99,,2013-02-04 08:52:00,
2013-02-04 04:02:00,18.0,15.0,-100.00,SW,220,6.0,9.0,88,0.00,,,-99.99,,2013-02-04 09:02:00,
2013-02-04 04:11:00,18.0,16.0,-100.00,SW,230,5.0,8.0,89,0.00,,,-99.99,,2013-02-04 09:11:00,
2013-02-04 04:21:00,18.0,16.0,-100.00,SW,220,5.0,8.0,90,0.00,,,-99.99,,2013-02-04 09:21:00,
2013-02-04 04:32:00,18.0,16.0,-100.00,SW,215,4.0,9.0,91,0.00,,,-99.99,,2013-02-04 09:32:00,
2013-02-04 04:42:00,18.0,16.0,-100.00,SSW,200,6.0,7.0,92,0.55,,,-99.99,,2013-02-04 09:42:00,
2013-02-04 04:51:00,18.0,16.0,-100.00,SSW,200,6.0,8.0,92,0.00,,,-99.99,,2013-02-04 09:51:00,
2013-02-04 05:01:00,18.0,16.0,-100.00,South,190,6.0,7.0,93,0.00,,,-99.99,,2013-02-04 10:01:00,
2013-02-04 05:11:00,18.0,16.0,-100.00,SSW,200,4.0,8.0,93,0.00,,,-99.99,,2013-02-04 10:11:00,
2013-02-04 05:21:00,18.0,16.0,-100.00,SSW,195,5.0,7.0,93,0.00,,,-99.99,,2013-02-04 10:21:00,
2013-02-04 05:32:00,18.0,16.0,-100.00,SSW,205,4.0,9.0,93,0.00,,,-99.99,,2013-02-04 10:32:00,
2013-02-04 05:41:00,18.0,16.0,-100.00,South,190,6.0,9.0,93,0.00,,,-99.99,,2013-02-04 10:41:00,
2013-02-04 05:51:00,18.0,17.0,-100.00,SSW,200,6.0,9.0,93,0.00,,,-99.99,,2013-02-04 10:51:00,
2013-02-04 06:02:00,18.0,17.0,-100.00,SSW,200,4.0,9.0,94,0.55,,,-99.99,,2013-02-04 11:02:00,
2013-02-04 06:11:00,18.0,17.0,-100.00,SSE,160,3.0,4.0,94,0.00,,,-99.99,,2013-02-04 11:11:00,
2013-02-04 06:22:00,18.0,17.0,-100.00,SSE,160,2.0,4.0,94,0.00,,,-99.99,,2013-02-04 11:22:00,
2013-02-04 06:32:00,18.0,17.0,-100.00,South,185,4.0,6.0,94,0.00,,,-99.99,,2013-02-04 11:32:00,
2013-02-04 06:42:00,18.0,17.0,-100.00,South,185,4.0,7.0,94,0.55,,,-99.99,,2013-02-04 11:42:00,
2013-02-04 06:52:00,18.0,17.0,-100.00,South,170,2.0,7.0,94,0.55,,,-99.99,,2013-02-04 11:52:00,
2013-02-04 07:02:00,18.0,17.0,-100.00,South,170,4.0,6.0,94,0.55,,,-99.99,,2013-02-04 12:02:00,
2013-02-04 07:12:00,18.0,17.0,-100.00,South,190,3.0,5.0,94,0.55,,,-99.99,,2013-02-04 12:12:00,
2013-02-04 07:22:00,18.0,17.0,-100.00,SSE,165,2.0,6.0,94,0.55,,,-99.99,,2013-02-04 12:22:00,
2013-02-04 07:32:00,18.0,17.0,-100.00,SSE,165,2.0,3.0,95,0.55,,,-99.99,,2013-02-04 12:32:00,
2013-02-04 07:42:00,18.0,17.0,-100.00,South,180,2.0,4.0,95,0.55,,,-99.99,,2013-02-04 12:42:00,
2013-02-04 07:52:00,18.0,17.0,-100.00,SSE,155,3.0,5.0,95,0.00,,,-99.99,,2013-02-04 12:52:00,
2013-02-04 08:03:00,18.0,17.0,-100.00,SSE,160,2.0,4.0,95,0.55,,,-99.99,,2013-02-04 13:03:00,
2013-02-04 08:12:00,18.0,17.0,-100.00,SSE,150,2.0,5.0,95,0.55,,,-99.99,,2013-02-04 13:12:00,
2013-02-04 08:21:00,18.0,17.0,-100.00,SE,145,2.0,6.0,95,0.55,,,-99.99,,2013-02-04 13:21:00,
2013-02-04 08:33:00,18.0,17.0,-100.00,SSE,165,3.0,4.0,95,1.10,,,-99.99,,2013-02-04 13:33:00,
2013-02-04 08:42:00,19.0,18.0,-100.00,SSE,155,1.0,4.0,95,1.10,,,-99.99,,2013-02-04 13:42:00,
2013-02-04 08:51:00,19.0,18.0,-100.00,South,190,3.0,5.0,95,1.10,,,-99.99,,2013-02-04 13:51:00,
2013-02-04 09:03:00,19.0,18.0,-100.00,South,170,3.0,4.0,95,1.69,,,-99.99,,2013-02-04 14:03:00,
2013-02-04 09:12:00,19.0,18.0,-100.00,SSE,160,4.0,6.0,95,1.10,,,-99.99,,2013-02-04 14:12:00,
2013-02-04 09:22:00,19.0,18.0,-100.00,South,175,4.0,6.0,95,1.10,,,-99.99,,2013-02-04 14:22:00,
2013-02-04 09:33:00,20.0,19.0,-100.00,South,185,2.0,6.0,95,1.69,,,-99.99,,2013-02-04 14:33:00,
2013-02-04 09:42:00,20.0,19.0,-100.00,South,180,2.0,4.0,94,2.24,,,-99.99,,2013-02-04 14:42:00,
2013-02-04 09:52:00,20.0,19.0,-100.00,SE,140,3.0,6.0,94,1.10,,,-99.99,,2013-02-04 14:52:00,
2013-02-04 10:03:00,22.0,20.0,-100.00,SSW,195,3.0,6.0,94,1.10,,,-99.99,,2013-02-04 15:03:00,
2013-02-04 10:12:00,22.0,20.0,-100.00,SSW,195,3.0,6.0,94,1.10,,,-99.99,,2013-02-04 15:12:00,
2013-02-04 10:23:00,22.0,20.0,-100.00,South,175,4.0,6.0,91,1.10,,,-99.99,,2013-02-04 15:23:00,
2013-02-04 10:33:00,23.0,20.0,-100.00,South,170,4.0,7.0,90,1.10,,,-99.99,,2013-02-04 15:33:00,
2013-02-04 10:43:00,23.0,20.0,-100.00,SE,140,4.0,6.0,89,0.55,,,-99.99,,2013-02-04 15:43:00,
2013-02-04 10:53:00,23.0,21.0,-100.00,SE,130,2.0,6.0,89,0.55,,,-99.99,,2013-02-04 15:53:00,
2013-02-04 11:03:00,24.0,21.0,-100.00,East,100,2.0,6.0,87,1.69,,,-99.99,,2013-02-04 16:03:00,
2013-02-04 11:11:00,24.0,20.0,-100.00,ESE,115,4.0,6.0,87,1.10,,,-99.99,,2013-02-04 16:11:00,
2013-02-04 11:22:00,23.0,20.0,-100.00,ESE,115,5.0,7.0,87,0.55,,,-99.99,,2013-02-04 16:22:00,
2013-02-04 11:33:00,23.0,20.0,-100.00,ESE,115,5.0,7.0,87,0.55,,,-99.99,,2013-02-04 16:33:00,
2013-02-04 11:42:00,24.0,21.0,-100.00,SE,130,4.0,6.0,87,1.10,,,-99.99,,2013-02-04 16:42:00,
2013-02-04 11:51:00,24.0,20.0,-100.00,East,90,3.0,6.0,87,0.55,,,-99.99,,2013-02-04 16:51:00,
2013-02-04 12:02:00,23.0,20.0,-100.00,East,85,5.0,8.0,88,0.55,,,-99.99,,2013-02-04 17:02:00,
2013-02-04 12:11:00,23.0,20.0,-100.00,East,85,5.0,8.0,88,0.55,,,-99.99,,2013-02-04 17:11:00,
2013-02-04 12:21:00,23.0,20.0,-100.00,East,85,5.0,8.0,88,0.55,,,-99.99,,2013-02-04 17:21:00,
2013-02-04 12:32:00,24.0,21.0,-100.00,ESE,110,5.0,7.0,87,0.00,,,-99.99,,2013-02-04 17:32:00,
2013-02-04 12:42:00,24.0,21.0,-100.00,East,100,4.0,6.0,88,0.55,,,-99.99,,2013-02-04 17:42:00,
2013-02-04 12:52:00,24.0,21.0,-100.00,East,90,4.0,7.0,88,0.00,,,-99.99,,2013-02-04 17:52:00,
2013-02-04 13:03:00,24.0,21.0,-100.00,East,90,6.0,8.0,88,0.55,,,-99.99,,2013-02-04 18:03:00,
2013-02-04 13:11:00,24.0,21.0,-100.00,East,80,6.0,9.0,88,0.55,,,-99.99,,2013-02-04 18:11:00,
2013-02-04 13:22:00,24.0,21.0,-100.00,East,100,4.0,7.0,88,0.55,,,-99.99,,2013-02-04 18:22:00,
2013-02-04 13:32:00,25.0,22.0,-100.00,ESE,115,7.0,7.0,88,0.55,,,-99.99,,2013-02-04 18:32:00,
2013-02-04 13:42:00,24.0,21.0,-100.00,East,80,6.0,9.0,88,0.55,,,-99.99,,2013-02-04 18:42:00,
2013-02-04 13:52:00,25.0,22.0,-100.00,East,85,4.0,7.0,88,0.55,,,-99.99,,2013-02-04 18:52:00,
2013-02-04 14:02:00,24.0,22.0,-100.00,ESE,105,4.0,8.0,89,0.55,,,-99.99,,2013-02-04 19:02:00,
2013-02-04 14:11:00,24.0,22.0,-100.00,East,90,5.0,8.0,90,0.00,,,-99.99,,2013-02-04 19:11:00,
2013-02-04 14:22:00,24.0,22.0,-100.00,ENE,70,4.0,7.0,90,0.55,,,-99.99,,2013-02-04 19:22:00,
2013-02-04 14:32:00,24.0,22.0,-100.00,East,100,4.0,7.0,90,0.55,,,-99.99,,2013-02-04 19:32:00,
2013-02-04 14:42:00,24.0,22.0,-100.00,East,90,4.0,7.0,90,0.55,,,-99.99,,2013-02-04 19:42:00,
2013-02-04 14:52:00,24.0,22.0,-100.00,East,85,5.0,8.0,90,0.00,,,-99.99,,2013-02-04 19:52:00,
2013-02-04 15:02:00,24.0,22.0,-100.00,East,95,4.0,6.0,91,0.55,,,-99.99,,2013-02-04 20:02:00,
2013-02-04 15:12:00,24.0,22.0,-100.00,East,90,4.0,6.0,91,0.00,,,-99.99,,2013-02-04 20:12:00,
2013-02-04 15:22:00,24.0,22.0,-100.00,East,85,5.0,6.0,91,0.55,,,-99.99,,2013-02-04 20:22:00,
2013-02-04 15:32:00,24.0,22.0,-100.00,East,85,6.0,7.0,91,0.00,,,-99.99,,2013-02-04 20:32:00,
2013-02-04 15:42:00,24.0,22.0,-100.00,East,100,4.0,6.0,91,0.55,,,-99.99,,2013-02-04 20:42:00,
2013-02-04 15:52:00,25.0,22.0,-100.00,East,90,4.0,6.0,91,0.00,,,-99.99,,2013-02-04 20:52:00,
2013-02-04 16:03:00,25.0,22.0,-100.00,ENE,70,2.0,4.0,91,0.00,,,-99.99,,2013-02-04 21:03:00,
2013-02-04 16:11:00,24.0,22.0,-100.00,ENE,75,4.0,6.0,91,0.00,,,-99.99,,2013-02-04 21:11:00,
2013-02-04 16:22:00,25.0,22.0,-100.00,ENE,70,1.0,7.0,91,0.00,,,-99.99,,2013-02-04 21:22:00,
2013-02-04 16:32:00,25.0,23.0,-100.00,NE,35,2.0,4.0,91,0.00,,,-99.99,,2013-02-04 21:32:00,
2013-02-04 16:42:00,25.0,23.0,-100.00,NE,45,2.0,6.0,91,0.00,,,-99.99,,2013-02-04 21:42:00,
2013-02-04 16:52:00,25.0,22.0,-100.00,ENE,60,1.0,3.0,91,0.00,,,-99.99,,2013-02-04 21:52:00,
2013-02-04 17:03:00,25.0,22.0,-100.00,NNE,30,2.0,6.0,91,0.00,,,-99.99,,2013-02-04 22:03:00,
2013-02-04 17:12:00,24.0,22.0,-100.00,NE,40,3.0,6.0,91,0.00,,,-99.99,,2013-02-04 22:12:00,
2013-02-04 17:21:00,24.0,22.0,-100.00,NE,40,3.0,6.0,91,0.00,,,-99.99,,2013-02-04 22:21:00,
2013-02-04 17:32:00,24.0,22.0,-100.00,NE,40,4.0,6.0,91,0.00,,,-99.99,,2013-02-04 22:32:00,
2013-02-04 17:42:00,24.0,22.0,-100.00,North,10,4.0,7.0,91,0.00,,,-99.99,,2013-02-04 22:42:00,
2013-02-04 17:51:00,24.0,22.0,-100.00,NE,45,4.0,6.0,91,0.00,,,-99.99,,2013-02-04 22:51:00,
2013-02-04 18:02:00,24.0,22.0,-100.00,NE,45,3.0,4.0,92,0.00,,,-99.99,,2013-02-04 23:02:00,
2013-02-04 18:21:00,23.0,22.0,-100.00,NE,45,2.0,4.0,93,0.00,,,-99.99,,2013-02-04 23:21:00,
2013-02-04 18:32:00,23.0,22.0,-100.00,NE,40,4.0,6.0,93,0.00,,,-99.99,,2013-02-04 23:32:00,
2013-02-04 18:42:00,23.0,22.0,-100.00,ENE,65,1.0,6.0,93,0.00,,,-99.99,,2013-02-04 23:42:00,
2013-02-04 18:52:00,23.0,22.0,-100.00,NE,55,2.0,6.0,93,0.00,,,-99.99,,2013-02-04 23:52:00,
2013-02-04 19:02:00,23.0,22.0,-100.00,ENE,65,1.0,6.0,93,0.00,,,-99.99,,2013-02-05 00:02:00,
2013-02-04 19:11:00,23.0,22.0,-100.00,NNE,25,2.0,4.0,93,0.00,,,-99.99,,2013-02-05 00:11:00,
2013-02-04 19:22:00,23.0,21.0,-100.00,East,85,1.0,4.0,93,0.00,,,-99.99,,2013-02-05 00:22:00,
2013-02-04 19:32:00,22.0,21.0,-100.00,NNE,15,1.0,4.0,94,0.00,,,-99.99,,2013-02-05 00:32:00,
2013-02-04 19:42:00,22.0,21.0,-100.00,NNE,30,1.0,4.0,94,0.00,,,-99.99,,2013-02-05 00:42:00,
2013-02-04 19:51:00,22.0,21.0,-100.00,North,0,2.0,4.0,94,0.00,,,-99.99,,2013-02-05 00:51:00,
2013-02-04 20:02:00,22.0,21.0,-100.00,North,5,1.0,4.0,94,0.00,,,-99.99,,2013-02-05 01:02:00,
2013-02-04 20:11:00,22.0,21.0,-100.00,NNW,340,2.0,3.0,94,0.00,,,-99.99,,2013-02-05 01:11:00,
2013-02-04 20:22:00,22.0,21.0,-100.00,North,0,1.0,4.0,94,0.00,,,-99.99,,2013-02-05 01:22:00,
2013-02-04 20:32:00,22.0,20.0,-100.00,NW,325,1.0,2.0,94,0.00,,,-99.99,,2013-02-05 01:32:00,
2013-02-04 20:42:00,21.0,20.0,-100.00,NNW,345,2.0,3.0,94,0.00,,,-99.99,,2013-02-05 01:42:00,
2013-02-04 20:52:00,21.0,20.0,-100.00,NNW,345,2.0,3.0,94,0.00,,,-99.99,,2013-02-05 01:52:00,
2013-02-04 21:01:00,21.0,20.0,-100.00,North,350,2.0,2.0,95,0.00,,,-99.99,,2013-02-05 02:01:00,
2013-02-04 21:11:00,21.0,20.0,-100.00,North,355,2.0,4.0,95,0.00,,,-99.99,,2013-02-05 02:11:00,
2013-02-04 21:22:00,21.0,20.0,-100.00,North,0,1.0,4.0,95,0.00,,,-99.99,,2013-02-05 02:22:00,
2013-02-04 21:32:00,21.0,20.0,-100.00,North,0,0.0,1.0,96,0.00,,,-99.99,,2013-02-05 02:32:00,
2013-02-04 21:42:00,20.0,20.0,-100.00,NNW,335,0.0,1.0,96,0.00,,,-99.99,,2013-02-05 02:42:00,
2013-02-04 21:52:00,20.0,19.0,-100.00,NW,310,1.0,1.0,96,0.00,,,-99.99,,2013-02-05 02:52:00,
2013-02-04 22:02:00,20.0,19.0,-100.00,WNW,290,1.0,2.0,96,0.00,,,-99.99,,2013-02-05 03:02:00,
2013-02-04 22:11:00,19.0,18.0,-100.00,NNE,15,0.0,2.0,96,0.00,,,-99.99,,2013-02-05 03:11:00,
2013-02-04 22:21:00,18.0,18.0,-100.00,East,90,0.0,1.0,96,0.00,,,-99.99,,2013-02-05 03:21:00,
2013-02-04 22:32:00,18.0,18.0,-100.00,NNW,335,2.0,4.0,96,0.00,,,-99.99,,2013-02-05 03:32:00,
2013-02-04 22:42:00,18.0,17.0,-100.00,North,0,1.0,4.0,97,0.00,,,-99.99,,2013-02-05 03:42:00,
2013-02-04 22:51:00,18.0,17.0,-100.00,NNE,15,0.0,2.0,97,0.00,,,-99.99,,2013-02-05 03:51:00,
2013-02-04 23:01:00,18.0,17.0,-100.00,East,85,0.0,0.0,97,0.00,,,-99.99,,2013-02-05 04:01:00,
2013-02-04 23:11:00,17.0,17.0,-100.00,South,185,0.0,1.0,97,0.00,,,-99.99,,2013-02-05 04:11:00,
2013-02-04 23:21:00,17.0,17.0,-100.00,NW,325,2.0,4.0,97,0.00,,,-99.99,,2013-02-05 04:21:00,
2013-02-04 23:32:00,17.0,16.0,-100.00,West,265,0.0,4.0,97,0.00,,,-99.99,,2013-02-05 04:32:00,
2013-02-04 23:42:00,17.0,16.0,-100.00,West,260,1.0,2.0,97,0.00,,,-99.99,,2013-02-05 04:42:00,
2013-02-04 23:52:00,17.0,16.0,-100.00,West,260,1.0,2.0,97,0.00,,,-99.99,,2013-02-05 04:52:00,